| time (UTC) | temp C | wind direction | speed KPH | gust KPH | rain 1hr cm | rain 24hr cm | rain mn cm | humidity % | barometer mb |
| 20260504081506 | 13 | 168 | 4.8 | 9.7 | 0.00 | 0.00 | 0.00 | 41 | 997.3 |
| 20260504081002 | 13 | 187 | 3.2 | 6.4 | 0.00 | 0.00 | 0.00 | 43 | 997.7 |
| 20260504080458 | 13 | 151 | 6.4 | 11.3 | 0.00 | 0.00 | 0.00 | 43 | 997.6 |
| 20260504050258 | 13 | 119 | 3.2 | 4.8 | 0.00 | 0.00 | 0.00 | 44 | 1001.2 |
| 20260504045751 | 13 | 167 | 3.2 | 3.2 | 0.00 | 0.00 | 0.00 | 45 | 1001.2 |
| 20260504045250 | 12 | 118 | 3.2 | 4.8 | 0.00 | 0.00 | 0.00 | 46 | 1001.3 |
| 20260504044748 | 12 | 122 | 1.6 | 4.8 | 0.00 | 0.00 | 0.00 | 47 | 1001.6 |
| 20260504044245 | 12 | 144 | 3.2 | 3.2 | 0.00 | 0.00 | 0.00 | 48 | 1001.4 |
| 20260504043743 | 11 | 105 | 3.2 | 3.2 | 0.00 | 0.00 | 0.00 | 49 | 1001.6 |
| 20260504043239 | 11 | 100 | 1.6 | 3.2 | 0.00 | 0.00 | 0.00 | 51 | 1001.7 |
| 20260504042738 | 11 | 129 | 3.2 | 3.2 | 0.00 | 0.00 | 0.00 | 51 | 1001.9 |
| 20260504042233 | 11 | 117 | 3.2 | 3.2 | 0.00 | 0.00 | 0.00 | 52 | 1001.8 |
| 20260504041729 | 10 | 100 | 1.6 | 3.2 | 0.00 | 0.00 | 0.00 | 53 | 1002.0 |
| 20260504041226 | 10 | 99 | 1.6 | 3.2 | 0.00 | 0.00 | 0.00 | 53 | 1002.0 |
| 20260504040722 | 10 | 87 | 3.2 | 3.2 | 0.00 | 0.00 | 0.00 | 54 | 1002.3 |
| 20260504040219 | 10 | 80 | 0.0 | 3.2 | 0.00 | 0.00 | 0.00 | 54 | 1002.3 |
| 20260504035715 | 10 | 73 | 0.0 | 3.2 | 0.00 | 0.00 | 0.00 | 53 | 1002.2 |
| 20260504035214 | 11 | 88 | 1.6 | 3.2 | 0.00 | 0.00 | 0.00 | 53 | 1002.6 |
| 20260504034711 | 11 | 72 | 1.6 | 3.2 | 0.00 | 0.00 | 0.00 | 53 | 1002.7 |
| 20260504034208 | 11 | 89 | 0.0 | 3.2 | 0.00 | 0.00 | 0.00 | 51 | 1002.7 |
| 20260504033705 | 11 | 110 | 1.6 | 3.2 | 0.00 | 0.00 | 0.00 | 50 | 1002.8 |
| 20260504033202 | 11 | 112 | 0.0 | 3.2 | 0.00 | 0.00 | 0.00 | 50 | 1002.9 |
| 20260504032659 | 11 | 91 | 3.2 | 3.2 | 0.00 | 0.00 | 0.00 | 50 | 1003.0 |
| 20260504032156 | 11 | 106 | 0.0 | 3.2 | 0.00 | 0.00 | 0.00 | 48 | 1003.1 |
| 20260504031653 | 11 | 141 | 0.0 | 1.6 | 0.00 | 0.00 | 0.00 | 48 | 1003.4 |
| 20260504031149 | 12 | 107 | 3.2 | 3.2 | 0.00 | 0.00 | 0.00 | 48 | 1003.4 |
| 20260504030646 | 12 | 113 | 1.6 | 3.2 | 0.00 | 0.00 | 0.00 | 47 | 1003.4 |
| 20260504030143 | 12 | 111 | 0.0 | 3.2 | 0.00 | 0.00 | 0.00 | 47 | 1003.7 |
| 20260504025639 | 12 | 95 | 0.0 | 3.2 | 0.00 | 0.00 | 0.00 | 46 | 1003.5 |
| 20260504025136 | 12 | 91 | 1.6 | 3.2 | 0.00 | 0.00 | 0.00 | 45 | 1003.6 |
| 20260504024633 | 12 | 89 | 3.2 | 3.2 | 0.00 | 0.00 | 0.00 | 44 | 1003.6 |
| 20260504024130 | 12 | 110 | 3.2 | 3.2 | 0.00 | 0.00 | 0.00 | 43 | 1003.5 |
| 20260504023626 | 13 | 109 | 1.6 | 3.2 | 0.00 | 0.00 | 0.00 | 42 | 1003.7 |
| 20260504023123 | 13 | 75 | 1.6 | 3.2 | 0.00 | 0.00 | 0.00 | 42 | 1003.7 |
| 20260504022619 | 13 | 66 | 3.2 | 3.2 | 0.00 | 0.00 | 0.00 | 43 | 1003.8 |
| 20260504022115 | 13 | 61 | 3.2 | 3.2 | 0.00 | 0.00 | 0.00 | 42 | 1003.7 |
| 20260504021613 | 13 | 85 | 1.6 | 3.2 | 0.00 | 0.00 | 0.00 | 41 | 1003.7 |
| 20260504021109 | 13 | 69 | 1.6 | 3.2 | 0.00 | 0.00 | 0.00 | 40 | 1003.7 |
| 20260504020607 | 13 | 91 | 3.2 | 3.2 | 0.00 | 0.00 | 0.00 | 42 | 1003.7 |
| 20260504015559 | 14 | 78 | 0.0 | 3.2 | 0.00 | 0.00 | 0.00 | 38 | 1003.7 |
| 20260504015055 | 15 | 44 | 0.0 | 3.2 | 0.00 | 0.00 | 0.00 | 39 | 1003.8 |
| 20260504014552 | 15 | 89 | 0.0 | 3.2 | 0.00 | 0.00 | 0.00 | 38 | 1003.5 |
| 20260504014049 | 15 | 84 | 0.0 | 3.2 | 0.00 | 0.00 | 0.00 | 35 | 1003.7 |
| 20260504013546 | 15 | 50 | 0.0 | 3.2 | 0.00 | 0.00 | 0.00 | 34 | 1003.8 |
| 20260504013043 | 16 | 100 | 1.6 | 1.6 | 0.00 | 0.00 | 0.00 | 33 | 1003.9 |
| 20260504012541 | 16 | 89 | 0.0 | 3.2 | 0.00 | 0.00 | 0.00 | 34 | 1003.7 |
| 20260504012038 | 16 | 109 | 0.0 | 3.2 | 0.00 | 0.00 | 0.00 | 33 | 1003.7 |
| 20260504011535 | 16 | 50 | 0.0 | 1.6 | 0.00 | 0.00 | 0.00 | 32 | 1003.8 |
| 20260504011026 | 17 | 65 | 0.0 | 3.2 | 0.00 | 0.00 | 0.00 | 32 | 1003.8 |
| 20260504010521 | 17 | 89 | 0.0 | 3.2 | 0.00 | 0.00 | 0.00 | 31 | 1003.8 |
| 20260504010017 | 17 | 73 | 0.0 | 3.2 | 0.00 | 0.00 | 0.00 | 31 | 1003.8 |
| 20260504005514 | 18 | 111 | 0.0 | 3.2 | 0.00 | 0.00 | 0.00 | 32 | 1003.9 |
| 20260504005012 | 18 | 92 | 0.0 | 3.2 | 0.00 | 0.00 | 0.00 | 30 | 1004.0 |
| 20260504004509 | 18 | 95 | 1.6 | 4.8 | 0.00 | 0.00 | 0.00 | 30 | 1004.0 |
| 20260504004006 | 18 | 22 | 0.0 | 8.0 | 0.00 | 0.00 | 0.00 | 29 | 1004.1 |
| 20260504003502 | 18 | 3 | 0.0 | 4.8 | 0.00 | 0.00 | 0.00 | 30 | 1004.1 |
| 20260504002959 | 18 | 268 | 0.0 | 4.8 | 0.00 | 0.00 | 0.00 | 31 | 1004.0 |
| 20260504002456 | 19 | 296 | 0.0 | 3.2 | 0.00 | 0.00 | 0.00 | 28 | 1004.0 |
| 20260504001953 | 19 | 341 | 0.0 | 1.6 | 0.00 | 0.00 | 0.00 | 28 | 1004.2 |
| 20260504001451 | 19 | 326 | 0.0 | 3.2 | 0.00 | 0.00 | 0.00 | 29 | 1004.2 |
| 20260504000947 | 19 | 209 | 4.8 | 4.8 | 0.00 | 0.00 | 0.00 | 29 | 1004.2 |
| 20260504000444 | 19 | 14 | 0.0 | 3.2 | 0.00 | 0.00 | 0.00 | 29 | 1004.2 |
| 20260503235941 | 19 | 25 | 0.0 | 3.2 | 0.00 | 0.00 | 0.00 | 30 | 1004.1 |
| 20260503235439 | 19 | 93 | 0.0 | 3.2 | 0.00 | 0.00 | 0.00 | 29 | 1004.1 |
| 20260503234936 | 19 | 261 | 1.6 | 3.2 | 0.00 | 0.00 | 0.00 | 27 | 1004.3 |
| 20260503234434 | 20 | 79 | 6.4 | 6.4 | 0.00 | 0.00 | 0.00 | 27 | 1004.1 |
| 20260503233932 | 20 | 230 | 0.0 | 1.6 | 0.00 | 0.00 | 0.00 | 29 | 1004.1 |
| 20260503233428 | 20 | 337 | 1.6 | 3.2 | 0.00 | 0.00 | 0.00 | 27 | 1004.2 |
| 20260503232925 | 20 | 114 | 0.0 | 3.2 | 0.00 | 0.00 | 0.00 | 30 | 1004.0 |
| 20260503232422 | 20 | 224 | 0.0 | 3.2 | 0.00 | 0.00 | 0.00 | 27 | 1004.1 |
| 20260503231920 | 20 | 89 | 0.0 | 3.2 | 0.00 | 0.00 | 0.00 | 28 | 1004.4 |
| 20260503231417 | 20 | 30 | 1.6 | 3.2 | 0.00 | 0.00 | 0.00 | 28 | 1004.3 |
| 20260503230913 | 20 | 26 | 1.6 | 4.8 | 0.00 | 0.00 | 0.00 | 28 | 1004.4 |
| 20260503230409 | 20 | 67 | 1.6 | 4.8 | 0.00 | 0.00 | 0.00 | 27 | 1004.3 |
| 20260503225907 | 21 | 282 | 3.2 | 3.2 | 0.00 | 0.00 | 0.00 | 25 | 1004.6 |
| 20260503225403 | 21 | 4 | 3.2 | 4.8 | 0.00 | 0.00 | 0.00 | 24 | 1004.6 |
| 20260503224859 | 21 | 56 | 0.0 | 4.8 | 0.00 | 0.00 | 0.00 | 26 | 1004.4 |
| 20260503224357 | 21 | 359 | 3.2 | 4.8 | 0.00 | 0.00 | 0.00 | 25 | 1004.5 |
| 20260503223854 | 21 | 306 | 3.2 | 3.2 | 0.00 | 0.00 | 0.00 | 26 | 1004.4 |
| 20260503223352 | 21 | 291 | 0.0 | 3.2 | 0.00 | 0.00 | 0.00 | 26 | 1004.6 |
| 20260503222847 | 21 | 199 | 4.8 | 4.8 | 0.00 | 0.00 | 0.00 | 25 | 1004.7 |
| 20260503222346 | 21 | 341 | 3.2 | 6.4 | 0.00 | 0.00 | 0.00 | 25 | 1004.6 |
| 20260503221843 | 21 | 213 | 3.2 | 8.0 | 0.00 | 0.00 | 0.00 | 26 | 1004.7 |
| 20260503221342 | 21 | 278 | 3.2 | 4.8 | 0.00 | 0.00 | 0.00 | 23 | 1004.7 |
| 20260503220837 | 21 | 6 | 3.2 | 4.8 | 0.00 | 0.00 | 0.00 | 23 | 1004.8 |
| 20260503220335 | 22 | 204 | 4.8 | 8.0 | 0.00 | 0.00 | 0.00 | 23 | 1004.7 |
| 20260503215832 | 22 | 333 | 0.0 | 3.2 | 0.00 | 0.00 | 0.00 | 25 | 1004.7 |
| 20260503215330 | 22 | 330 | 3.2 | 8.0 | 0.00 | 0.00 | 0.00 | 24 | 1005.0 |
| 20260503214827 | 22 | 305 | 0.0 | 4.8 | 0.00 | 0.00 | 0.00 | 25 | 1005.0 |
| 20260503214324 | 22 | 305 | 6.4 | 6.4 | 0.00 | 0.00 | 0.00 | 22 | 1004.8 |
| 20260503213821 | 22 | 283 | 3.2 | 4.8 | 0.00 | 0.00 | 0.00 | 25 | 1004.9 |
| 20260503213319 | 22 | 266 | 0.0 | 3.2 | 0.00 | 0.00 | 0.00 | 23 | 1005.1 |
| 20260503212815 | 22 | 208 | 6.4 | 6.4 | 0.00 | 0.00 | 0.00 | 23 | 1005.1 |
| 20260503212313 | 22 | 278 | 3.2 | 8.0 | 0.00 | 0.00 | 0.00 | 23 | 1005.1 |
| 20260503211810 | 22 | 153 | 9.7 | 12.9 | 0.00 | 0.00 | 0.00 | 24 | 1005.2 |
| 20260503211307 | 22 | 22 | 3.2 | 4.8 | 0.00 | 0.00 | 0.00 | 23 | 1005.1 |
| 20260503210807 | 22 | 202 | 3.2 | 8.0 | 0.00 | 0.00 | 0.00 | 28 | 1005.3 |
| 20260503210305 | 22 | 172 | 3.2 | 4.8 | 0.00 | 0.00 | 0.00 | 28 | 1005.3 |
| 20260503205759 | 22 | 323 | 3.2 | 6.4 | 0.00 | 0.00 | 0.00 | 23 | 1005.4 |
| 20260503205256 | 21 | 305 | 3.2 | 8.0 | 0.00 | 0.00 | 0.00 | 23 | 1005.3 |
| 20260503204753 | 22 | 32 | 3.2 | 6.4 | 0.00 | 0.00 | 0.00 | 24 | 1005.5 |
| 20260503204251 | 21 | 289 | 0.0 | 12.9 | 0.00 | 0.00 | 0.00 | 25 | 1005.7 |
| 20260503203748 | 22 | 289 | 4.8 | 6.4 | 0.00 | 0.00 | 0.00 | 23 | 1005.5 |
| 20260503203245 | 21 | 359 | 3.2 | 9.7 | 0.00 | 0.00 | 0.00 | 23 | 1005.5 |
| 20260503202742 | 21 | 277 | 4.8 | 8.0 | 0.00 | 0.00 | 0.00 | 23 | 1005.5 |
| 20260503202240 | 21 | 2 | 3.2 | 6.4 | 0.00 | 0.00 | 0.00 | 22 | 1005.4 |
| 20260503201737 | 21 | 9 | 8.0 | 9.7 | 0.00 | 0.00 | 0.00 | 24 | 1005.6 |
| 20260503201235 | 21 | 308 | 3.2 | 6.4 | 0.00 | 0.00 | 0.00 | 24 | 1005.6 |
| 20260503200731 | 22 | 261 | 4.8 | 9.7 | 0.00 | 0.00 | 0.00 | 24 | 1005.7 |
| 20260503200227 | 21 | 309 | 1.6 | 6.4 | 0.00 | 0.00 | 0.00 | 25 | 1005.6 |
| 20260503195724 | 21 | 169 | 3.2 | 6.4 | 0.00 | 0.00 | 0.00 | 26 | 1005.9 |
| 20260503195221 | 21 | 247 | 0.0 | 9.7 | 0.00 | 0.00 | 0.00 | 26 | 1005.9 |
| 20260503194719 | 21 | 287 | 6.4 | 6.4 | 0.00 | 0.00 | 0.00 | 25 | 1006.1 |
| 20260503194214 | 21 | 18 | 8.0 | 11.3 | 0.00 | 0.00 | 0.00 | 26 | 1006.1 |
| 20260503193711 | 21 | 333 | 3.2 | 8.0 | 0.00 | 0.00 | 0.00 | 28 | 1005.9 |
| 20260503193207 | 21 | 241 | 0.0 | 4.8 | 0.00 | 0.00 | 0.00 | 34 | 1006.0 |
| 20260503192702 | 21 | 343 | 3.2 | 8.0 | 0.00 | 0.00 | 0.00 | 29 | 1006.0 |
| 20260503192158 | 21 | 306 | 3.2 | 6.4 | 0.00 | 0.00 | 0.00 | 28 | 1006.3 |
| 20260503191655 | 21 | 350 | 6.4 | 6.4 | 0.00 | 0.00 | 0.00 | 29 | 1006.1 |
| 20260503191152 | 21 | 289 | 3.2 | 6.4 | 0.00 | 0.00 | 0.00 | 32 | 1006.1 |
| 20260503190649 | 21 | 308 | 6.4 | 6.4 | 0.00 | 0.00 | 0.00 | 27 | 1006.1 |
| 20260503190146 | 21 | 342 | 3.2 | 8.0 | 0.00 | 0.00 | 0.00 | 28 | 1006.0 |
| 20260503185642 | 21 | 274 | 3.2 | 6.4 | 0.00 | 0.00 | 0.00 | 30 | 1006.1 |
| 20260503185138 | 21 | 326 | 3.2 | 8.0 | 0.00 | 0.00 | 0.00 | 25 | 1006.2 |
| 20260503184633 | 21 | 271 | 3.2 | 8.0 | 0.00 | 0.00 | 0.00 | 27 | 1006.1 |
| 20260503184130 | 21 | 294 | 3.2 | 6.4 | 0.00 | 0.00 | 0.00 | 31 | 1006.2 |
| 20260503183626 | 21 | 353 | 3.2 | 9.7 | 0.00 | 0.00 | 0.00 | 31 | 1006.1 |
| 20260503183123 | 20 | 203 | 3.2 | 4.8 | 0.00 | 0.00 | 0.00 | 30 | 1006.2 |
| 20260503182622 | 20 | 105 | 6.4 | 12.9 | 0.00 | 0.00 | 0.00 | 31 | 1006.3 |
| 20260503182120 | 21 | 308 | 6.4 | 9.7 | 0.00 | 0.00 | 0.00 | 32 | 1006.3 |
| 20260503181616 | 21 | 107 | 4.8 | 6.4 | 0.00 | 0.00 | 0.00 | 34 | 1006.4 |
| 20260503181113 | 20 | 171 | 3.2 | 6.4 | 0.00 | 0.00 | 0.00 | 33 | 1006.5 |
| 20260503180610 | 20 | 323 | 1.6 | 8.0 | 0.00 | 0.00 | 0.00 | 34 | 1006.4 |
| 20260503180108 | 21 | 331 | 3.2 | 6.4 | 0.00 | 0.00 | 0.00 | 34 | 1006.4 |
| 20260503175604 | 20 | 26 | 3.2 | 8.0 | 0.00 | 0.00 | 0.00 | 33 | 1006.5 |
| 20260503175102 | 21 | 334 | 3.2 | 8.0 | 0.00 | 0.00 | 0.00 | 33 | 1006.6 |
| 20260503174559 | 21 | 35 | 0.0 | 6.4 | 0.00 | 0.00 | 0.00 | 33 | 1006.3 |
| 20260503174055 | 21 | 346 | 4.8 | 8.0 | 0.00 | 0.00 | 0.00 | 34 | 1006.4 |
| 20260503173550 | 20 | 7 | 0.0 | 6.4 | 0.00 | 0.00 | 0.00 | 37 | 1006.4 |
| 20260503173047 | 20 | 331 | 1.6 | 6.4 | 0.00 | 0.00 | 0.00 | 36 | 1006.4 |
| 20260503172544 | 21 | 316 | 3.2 | 3.2 | 0.00 | 0.00 | 0.00 | 38 | 1006.5 |
| 20260503172041 | 20 | 297 | 3.2 | 6.4 | 0.00 | 0.00 | 0.00 | 38 | 1006.6 |
| 20260503171538 | 20 | 306 | 3.2 | 6.4 | 0.00 | 0.00 | 0.00 | 37 | 1006.6 |
| 20260503171035 | 21 | 18 | 11.3 | 14.5 | 0.00 | 0.00 | 0.00 | 37 | 1006.6 |
| 20260503170531 | 20 | 352 | 4.8 | 8.0 | 0.00 | 0.00 | 0.00 | 36 | 1006.8 |
| 20260503150924 | 18 | 293 | 4.8 | 6.4 | 0.00 | 0.00 | 0.00 | 42 | 1006.3 |
| 20260503150420 | 18 | 269 | 1.6 | 8.0 | 0.00 | 0.00 | 0.00 | 41 | 1006.5 |
| 20260503131314 | 13 | 340 | 1.6 | 4.8 | 0.00 | 0.00 | 0.00 | 50 | 1005.5 |
| 20260503130811 | 14 | 46 | 3.2 | 6.4 | 0.00 | 0.00 | 0.00 | 50 | 1005.5 |
| 20260503130309 | 14 | 41 | 1.6 | 4.8 | 0.00 | 0.00 | 0.00 | 51 | 1005.3 |
| 20260503110702 | 10 | 49 | 0.0 | 3.2 | 0.00 | 0.00 | 0.00 | 55 | 1004.3 |
| 20260503110159 | 11 | 46 | 0.0 | 4.8 | 0.00 | 0.00 | 0.00 | 54 | 1004.3 |
| 20260503100126 | 12 | 28 | 3.2 | 11.3 | 0.00 | 0.00 | 0.00 | 47 | 1004.4 |